Weather WX

World > North America > United States > Minnesota

Weaver, Minnesota Regional Weather

Lat: 44.14N, Lon: 91.9W
Wx Zone: MNZ088
Warning FLW WEATHER ALERT - (More Info. Click Here) Warning
Feedback

Weaver, MN Regional Weather

Expires:201906181200;;676780
ASUS43 KMPX 181110
RWRMN 
WEATHER ROUNDUP FOR MINNESOTA
NATIONAL WEATHER SERVICE TWIN CITIES/CHANHASSEN MN
600 AM CDT TUE JUN 18 2019


NOTE: "FAIR" INDICATES FEW OR NO CLOUDS BELOW 12,000 FEET WITH NO
SIGNIFICANT WEATHER AND/OR OBSTRUCTIONS TO VISIBILITY. N/A MEANS
CURRENT SKY AND/OR WEATHER CONDITIONS ARE NOT AVAILABLE.


MNZ078>079-086>088-094>096-181200-
   Southeast Minnesota   
  
CITY           SKY/WX    TMP DP  RH WIND       PRES   REMARKS
ROCHESTER      CLOUDY    61  56  83 NW3       29.98S                  
RED WING       FAIR      55  55 100 N3        29.96S                  
STANTON        FAIR      56  54  91 CALM      29.97S                  
DODGE CENTER   CLOUDY    61  54  77 CALM      29.98S                  
WINONA         CLOUDY    63  61  94 NW3       29.96S                  
AUSTIN         CLOUDY    63  55  77 CALM      29.98S                  
PRESTON        CLOUDY    61  58  88 NW3       29.98S                  
$$
ABBREVIATIONS USED IN REMARKS
   TC - TEMPERATURES IN CELSIUS
  WCI - WIND CHILL INDEX
   HX - HEAT INDEX
  VSB - VISIBILITY 
$$
  

SKY/WX - Weather  TMP - Temperature  DP - Dew Point  RH - Relative Humidity
WIND - Wind Direction/Speed PRES - Barometric Pressure VSB - Visibility
WCI - Wind Chill Index E13G22 Wind - East Wind 13 mph/Gusts of 22 mph